Location: Montreal
(45.5087°N, 73.5540°W)
Time: 05:06:37
(UTC-05:00)

Envisat - Visible Passes

Search period start: 12 December 2018 00:00
Search period end: 22 December 2018 00:00
Orbit: 764 x 766 km, 98.2° (Epoch: 12 December)

Date Brightness Start Highest point End Pass type
(mag) Time Alt. Az. Time Alt. Az. Time Alt. Az.
12 Dec 4.4 17:13:59 10° E 17:17:13 17° ENE 17:20:27 10° NNE visible
12 Dec 3.1 18:50:36 10° S 18:55:40 72° WSW 19:00:46 10° NNW visible
13 Dec 3.0 18:14:02 10° SSE 18:18:58 55° ENE 18:23:56 10° N visible
13 Dec 5.3 19:54:38 10° SW 19:58:20 20° W 20:02:03 10° NW visible
14 Dec 5.9 06:21:55 10° NE 06:25:00 16° E 06:28:04 10° SE visible
14 Dec 3.8 17:38:15 10° ESE 17:42:28 27° ENE 17:46:42 10° N visible
14 Dec 4.1 19:16:30 10° SSW 19:21:18 42° W 19:26:07 10° NNW visible
15 Dec 4.5 17:03:34 10° E 17:06:10 14° ENE 17:08:46 10° NNE visible
15 Dec 2.9 18:39:23 10° SSE 18:44:27 89° WSW 18:49:35 10° NNW visible
15 Dec 5.9 20:22:32 10° WSW 20:24:12 11° W 20:25:54 10° WNW visible
16 Dec 5.4 06:46:31 10° NE 06:50:49 27° E 06:55:06 10° SSE visible
16 Dec 3.2 18:03:01 10° SE 18:07:49 44° ENE 18:12:38 10° N visible
16 Dec 5.0 19:42:53 10° SSW 19:47:01 25° W 19:51:11 10° NW visible
17 Dec 6.1 06:11:30 10° ENE 06:13:39 13° E 06:15:49 10° ESE visible
17 Dec 4.1 17:27:30 10° ESE 17:31:23 23° ENE 17:35:16 10° NNE visible
17 Dec 3.7 19:05:06 10° S 19:10:03 52° W 19:15:02 10° NNW visible
18 Dec 4.7 16:53:29 10° ENE 16:55:08 12° NE 16:56:48 10° NE visible
18 Dec 2.8 18:28:13 10° SSE 18:33:16 74° ENE 18:38:22 10° N visible
18 Dec 5.7 20:10:04 10° WSW 20:12:51 15° W 20:15:40 10° NW visible
19 Dec 5.7 06:35:38 10° NE 06:39:32 22° E 06:43:24 10° SE visible
19 Dec 3.5 17:52:06 10° SE 17:56:42 36° ENE 18:01:18 10° N visible
19 Dec 4.7 19:31:16 10° SSW 19:35:44 31° W 19:40:14 10° NNW visible
20 Dec 4.3 17:16:52 10° ESE 17:20:19 19° ENE 17:23:45 10° NNE visible
20 Dec 3.3 18:53:47 10° S 18:58:49 66° WSW 19:03:54 10° NNW visible
21 Dec 2.9 18:17:07 10° SSE 18:22:06 60° ENE 18:27:07 10° N visible
21 Dec 5.5 19:58:02 10° SW 20:01:32 18° W 20:05:02 10° NW visible
